KC7WRB Weather Reports


Display with metric or nautical units.
time (UTC)temp
F
wind
direction
speed
MPH
gust
MPH
rain 1hr
in
rain 24hr
in
rain mn
in
humidity
%
barometer
mb
20260503054701 55 163 0.0 1.0 0.00 0.00 0.00 61 1015.7
20260503054159 53 161 0.0 0.0 0.00 0.00 0.00 65 1016.0
20260503053657 52 94 2.0 2.0 0.00 0.00 0.00 72 1016.0
20260503053155 52 79 1.0 2.0 0.00 0.00 0.00 72 1015.9
20260503052651 54 67 0.0 1.0 0.00 0.00 0.00 68 1015.9
20260503052147 55 137 2.0 2.0 0.00 0.00 0.00 62 1015.7
20260503051643 55 166 2.0 2.0 0.00 0.00 0.00 64 1015.9
20260503051141 55 156 2.0 2.0 0.00 0.00 0.00 64 1015.5
20260503050637 55 190 3.0 3.0 0.00 0.00 0.00 63 1015.5
20260503050134 55 183 0.0 0.0 0.00 0.00 0.00 63 1015.7
20260503045632 56 195 0.0 0.0 0.00 0.00 0.00 62 1015.5
20260503045129 56 173 0.0 0.0 0.00 0.00 0.00 61 1015.4
20260503044625 56 177 0.0 0.0 0.00 0.00 0.00 61 1015.3
20260503044123 55 194 1.0 1.0 0.00 0.00 0.00 62 1015.2
20260503043619 55 230 2.0 2.0 0.00 0.00 0.00 65 1014.9
20260503043116 56 217 2.0 2.0 0.00 0.00 0.00 62 1015.2
20260503042613 57 219 2.0 2.0 0.00 0.00 0.00 60 1015.0
20260503042109 56 203 1.0 2.0 0.00 0.00 0.00 61 1015.2
20260503041605 57 177 0.0 0.0 0.00 0.00 0.00 56 1015.0
20260503041104 57 147 1.0 2.0 0.00 0.00 0.00 54 1015.0
20260503040600 58 158 2.0 2.0 0.00 0.00 0.00 48 1015.2
20260503040057 59 128 0.0 0.0 0.00 0.00 0.00 46 1015.0
20260503035554 59 118 0.0 1.0 0.00 0.00 0.00 45 1014.8
20260503035052 59 84 0.0 0.0 0.00 0.00 0.00 46 1014.7
20260503034549 59 197 0.0 0.0 0.00 0.00 0.00 48 1014.7
20260503034046 59 108 0.0 0.0 0.00 0.00 0.00 45 1014.6
20260503033543 60 98 2.0 2.0 0.00 0.00 0.00 44 1014.6
20260503033041 60 246 3.0 4.0 0.00 0.00 0.00 42 1014.5
20260503032539 60 258 4.0 4.0 0.00 0.00 0.00 43 1014.2
20260503032037 60 261 4.0 6.0 0.00 0.00 0.00 42 1014.4
20260503031535 61 261 6.0 7.0 0.00 0.00 0.00 41 1014.2
20260503031032 61 271 4.0 4.0 0.00 0.00 0.00 40 1014.1
20260503030527 62 259 3.0 3.0 0.00 0.00 0.00 38 1014.0
20260503030025 62 260 2.0 2.0 0.00 0.00 0.00 37 1013.9
20260503025521 62 267 2.0 2.0 0.00 0.00 0.00 36 1013.9
20260503025019 63 282 3.0 3.0 0.00 0.00 0.00 35 1014.0
20260503024515 63 302 3.0 3.0 0.00 0.00 0.00 35 1014.0
20260503024013 63 238 1.0 2.0 0.00 0.00 0.00 36 1013.9
20260503023509 63 164 1.0 1.0 0.00 0.00 0.00 36 1014.0
20260503023007 64 80 1.0 1.0 0.00 0.00 0.00 36 1014.0
20260503022502 63 98 0.0 1.0 0.00 0.00 0.00 37 1014.1
20260503021957 64 104 0.0 1.0 0.00 0.00 0.00 40 1014.1
20260503021454 64 126 0.0 0.0 0.00 0.00 0.00 37 1014.2
20260503020951 65 121 2.0 2.0 0.00 0.00 0.00 35 1014.4
20260503020449 65 45 1.0 2.0 0.00 0.00 0.00 34 1014.5
20260503015945 65 64 1.0 1.0 0.00 0.00 0.00 32 1014.4
20260503015442 65 48 2.0 2.0 0.00 0.00 0.00 32 1014.2
20260503014938 65 84 2.0 2.0 0.00 0.00 0.00 33 1014.5
20260503014435 65 95 9.0 11.0 0.00 0.00 0.00 35 1014.6
20260503013933 65 114 7.0 8.0 0.00 0.00 0.00 34 1014.2
20260503013430 66 109 6.0 7.0 0.00 0.00 0.00 33 1014.5
20260503012927 66 234 0.0 0.0 0.00 0.00 0.00 31 1014.4
20260503012425 66 240 2.0 2.0 0.00 0.00 0.00 31 1014.2
20260503011921 66 260 4.0 4.0 0.00 0.00 0.00 31 1013.9
20260503011418 66 316 2.0 3.0 0.00 0.00 0.00 32 1014.1
20260503010915 65 71 5.0 6.0 0.00 0.00 0.00 32 1014.1
20260503010412 65 58 6.0 10.0 0.00 0.00 0.00 33 1014.2
20260503005909 66 72 4.0 8.0 0.00 0.00 0.00 33 1014.5
20260503005407 67 77 14.0 18.0 0.00 0.00 0.00 32 1014.5
20260503004902 67 89 1.0 1.0 0.00 0.00 0.00 31 1014.4
20260503004400 67 92 1.0 1.0 0.00 0.00 0.00 30 1014.5
20260503003857 67 64 2.0 3.0 0.00 0.00 0.00 31 1014.5
20260503003354 68 58 7.0 8.0 0.00 0.00 0.00 32 1014.5
20260503002851 68 296 11.0 14.0 0.00 0.00 0.00 31 1014.1
20260503002348 68 344 10.0 10.0 0.00 0.00 0.00 30 1014.4
20260503001844 67 347 7.0 8.0 0.00 0.00 0.00 30 1014.1
20260503001341 67 338 9.0 13.0 0.00 0.00 0.00 30 1013.9
20260503000838 66 79 6.0 10.0 0.00 0.00 0.00 32 1014.2
20260503000336 66 80 6.0 10.0 0.00 0.00 0.00 31 1014.4
20260502235833 66 59 4.0 6.0 0.00 0.00 0.00 32 1014.5
20260502235330 68 83 6.0 7.0 0.00 0.00 0.00 30 1014.5
20260502234826 68 40 6.0 7.0 0.00 0.00 0.00 27 1014.4
20260502234323 68 33 7.0 9.0 0.00 0.00 0.00 28 1014.2
20260502233820 67 51 9.0 13.0 0.00 0.00 0.00 28 1014.4
20260502233316 67 77 5.0 11.0 0.00 0.00 0.00 31 1014.2
20260502232813 67 84 8.0 10.0 0.00 0.00 0.00 31 1014.1
20260502232310 67 49 9.0 13.0 0.00 0.00 0.00 31 1013.7
20260502231806 67 84 13.0 18.0 0.00 0.00 0.00 32 1013.5
20260502231304 67 86 11.0 17.0 0.00 0.00 0.00 31 1013.7
20260502230802 68 94 14.0 15.0 0.00 0.00 0.00 31 1013.7
20260502230300 68 75 12.0 16.0 0.00 0.00 0.00 27 1013.5
20260502225756 68 85 11.0 14.0 0.00 0.00 0.00 28 1013.9
20260502225253 68 110 19.0 22.0 0.00 0.00 0.00 26 1013.9
20260502224749 69 104 17.0 18.0 0.00 0.00 0.00 25 1014.0
20260502224246 69 81 13.0 16.0 0.00 0.00 0.00 25 1013.9
20260502223744 69 91 2.0 4.0 0.00 0.00 0.00 26 1013.9
20260502223242 71 86 5.0 7.0 0.00 0.00 0.00 24 1014.2
20260502222739 73 78 6.0 8.0 0.00 0.00 0.00 24 1014.4
20260502222236 74 127 4.0 4.0 0.00 0.00 0.00 21 1014.0
20260502221731 74 198 3.0 4.0 0.00 0.00 0.00 21 1014.1
20260502221229 74 240 4.0 6.0 0.00 0.00 0.00 21 1013.9
20260502220725 75 203 4.0 4.0 0.00 0.00 0.00 20 1014.2
20260502220221 74 206 5.0 6.0 0.00 0.00 0.00 20 1014.2
20260502215718 76 245 8.0 10.0 0.00 0.00 0.00 20 1014.2
20260502215215 76 176 2.0 3.0 0.00 0.00 0.00 19 1014.2
20260502214713 76 208 2.0 3.0 0.00 0.00 0.00 18 1014.2
20260502214210 76 161 3.0 4.0 0.00 0.00 0.00 19 1014.1
20260502213707 77 255 7.0 8.0 0.00 0.00 0.00 18 1014.5
20260502213204 77 193 3.0 4.0 0.00 0.00 0.00 18 1014.4
20260502212702 76 193 4.0 4.0 0.00 0.00 0.00 18 1014.4
20260502212200 75 253 3.0 4.0 0.00 0.00 0.00 19 1014.5
20260502211656 76 257 8.0 9.0 0.00 0.00 0.00 18 1014.4
20260502211153 77 180 8.0 10.0 0.00 0.00 0.00 17 1014.7
20260502210650 76 139 4.0 6.0 0.00 0.00 0.00 18 1014.5
20260502210147 76 148 4.0 8.0 0.00 0.00 0.00 17 1014.8
20260502205644 75 261 4.0 7.0 0.00 0.00 0.00 19 1014.7
20260502205141 74 258 7.0 9.0 0.00 0.00 0.00 19 1014.7
20260502204638 74 217 4.0 4.0 0.00 0.00 0.00 20 1014.6
20260502204135 74 190 7.0 10.0 0.00 0.00 0.00 19 1015.0
20260502203632 75 230 8.0 10.0 0.00 0.00 0.00 20 1015.0
20260502203130 75 207 5.0 7.0 0.00 0.00 0.00 19 1014.8
20260502202625 75 239 3.0 4.0 0.00 0.00 0.00 19 1014.9
20260502202123 75 270 5.0 7.0 0.00 0.00 0.00 19 1014.8
20260502201620 75 255 4.0 7.0 0.00 0.00 0.00 20 1014.9
20260502201116 76 197 7.0 9.0 0.00 0.00 0.00 19 1014.9
20260502200612 75 209 5.0 7.0 0.00 0.00 0.00 19 1015.2
20260502200110 75 205 6.0 7.0 0.00 0.00 0.00 19 1015.2
20260502195608 75 120 5.0 8.0 0.00 0.00 0.00 20 1015.4
20260502195103 75 236 6.0 7.0 0.00 0.00 0.00 19 1015.2
20260502194600 74 226 4.0 6.0 0.00 0.00 0.00 19 1015.3
20260502194056 75 208 4.0 6.0 0.00 0.00 0.00 19 1015.5
20260502193554 75 247 3.0 6.0 0.00 0.00 0.00 20 1015.4
20260502193050 75 202 6.0 8.0 0.00 0.00 0.00 21 1015.6
20260502192546 75 262 4.0 4.0 0.00 0.00 0.00 20 1015.6
20260502192044 75 124 3.0 3.0 0.00 0.00 0.00 19 1015.4
20260502191540 75 224 3.0 4.0 0.00 0.00 0.00 20 1016.0
20260502191038 74 250 5.0 6.0 0.00 0.00 0.00 20 1015.7
20260502190536 74 208 5.0 9.0 0.00 0.00 0.00 21 1015.7
20260502190032 74 245 6.0 8.0 0.00 0.00 0.00 20 1015.9
20260502185527 73 195 6.0 10.0 0.00 0.00 0.00 21 1015.7
20260502185024 74 240 6.0 7.0 0.00 0.00 0.00 20 1015.9
20260502184520 74 226 6.0 8.0 0.00 0.00 0.00 20 1015.9
20260502184016 73 267 12.0 17.0 0.00 0.00 0.00 21 1015.7
20260502183513 73 195 4.0 4.0 0.00 0.00 0.00 21 1015.9
20260502183009 75 261 5.0 7.0 0.00 0.00 0.00 20 1016.1
20260502182503 74 202 4.0 7.0 0.00 0.00 0.00 20 1016.2
20260502182000 73 250 2.0 2.0 0.00 0.00 0.00 21 1016.3
20260502181458 73 121 2.0 2.0 0.00 0.00 0.00 21 1016.4
20260502180957 72 151 6.0 8.0 0.00 0.00 0.00 22 1016.5
20260502180453 72 260 9.0 11.0 0.00 0.00 0.00 22 1016.3
20260502170412 66 243 2.0 3.0 0.00 0.00 0.00 23 1017.1
20260502163855 64 350 4.0 4.0 0.00 0.00 0.00 25 1017.1
20260502163352 63 317 3.0 4.0 0.00 0.00 0.00 25 1016.9
20260502162850 62 300 4.0 4.0 0.00 0.00 0.00 25 1017.1
20260502162346 62 303 3.0 4.0 0.00 0.00 0.00 26 1017.1
20260502161843 61 261 2.0 2.0 0.00 0.00 0.00 26 1017.2
20260502161339 60 246 4.0 6.0 0.00 0.00 0.00 26 1017.0
20260502160837 59 290 4.0 4.0 0.00 0.00 0.00 28 1017.1
20260502160336 58 301 6.0 7.0 0.00 0.00 0.00 28 1017.1
20260502152310 52 211 2.0 2.0 0.00 0.00 0.00 37 1017.0
20260502151808 51 135 0.0 0.0 0.00 0.00 0.00 39 1017.0
20260502151305 50 134 0.0 0.0 0.00 0.00 0.00 42 1017.1
20260502150803 49 134 1.0 1.0 0.00 0.00 0.00 48 1017.2
20260502150258 49 146 1.0 2.0 0.00 0.00 0.00 44 1017.1
20260502130647 40 127 0.0 1.0 0.00 0.00 0.00 50 1016.5
20260502130145 41 109 0.0 0.0 0.00 0.00 0.00 54 1016.5
20260502123630 42 217 0.0 0.0 0.00 0.00 0.00 47 1016.2
20260502123127 42 219 1.0 1.0 0.00 0.00 0.00 48 1016.4
20260502122624 43 185 1.0 1.0 0.00 0.00 0.00 47 1016.3
20260502122120 45 189 0.0 0.0 0.00 0.00 0.00 43 1016.2
20260502121619 45 160 1.0 1.0 0.00 0.00 0.00 42 1016.3
20260502121115 44 239 0.0 0.0 0.00 0.00 0.00 43 1016.2
20260502120612 43 240 0.0 1.0 0.00 0.00 0.00 45 1016.3
20260502120109 44 220 2.0 2.0 0.00 0.00 0.00 45 1016.4
20260502115607 44 220 2.0 2.0 0.00 0.00 0.00 45 1016.3
20260502115102 43 169 0.0 1.0 0.00 0.00 0.00 45 1016.3
20260502114559 44 169 1.0 1.0 0.00 0.00 0.00 47 1016.2
20260502114055 44 159 1.0 2.0 0.00 0.00 0.00 42 1016.3
20260502113553 43 237 0.0 0.0 0.00 0.00 0.00 41 1016.3
20260502113052 43 239 1.0 1.0 0.00 0.00 0.00 41 1016.2
20260502112549 44 239 1.0 2.0 0.00 0.00 0.00 39 1016.1
20260502112047 43 278 2.0 2.0 0.00 0.00 0.00 39 1016.3
20260502111544 43 268 1.0 1.0 0.00 0.00 0.00 41 1016.4
20260502111041 44 267 0.0 0.0 0.00 0.00 0.00 43 1016.3
20260502110538 44 287 1.0 2.0 0.00 0.00 0.00 42 1016.2
20260502110036 44 259 2.0 2.0 0.00 0.00 0.00 43 1016.2
20260502105533 44 277 3.0 3.0 0.00 0.00 0.00 43 1016.2
20260502105031 44 206 1.0 2.0 0.00 0.00 0.00 40 1016.4
20260502104527 45 188 0.0 1.0 0.00 0.00 0.00 36 1016.2
20260502104025 45 187 0.0 0.0 0.00 0.00 0.00 36 1016.1
20260502103523 46 187 0.0 0.0 0.00 0.00 0.00 33 1016.3
20260502103021 47 187 0.0 1.0 0.00 0.00 0.00 32 1016.4
20260502102516 47 209 1.0 1.0 0.00 0.00 0.00 37 1016.2
20260502102014 46 198 1.0 2.0 0.00 0.00 0.00 36 1016.1
20260502101512 46 125 0.0 0.0 0.00 0.00 0.00 31 1016.1
20260502101010 47 125 0.0 0.0 0.00 0.00 0.00 30 1016.2
20260502100508 47 125 0.0 0.0 0.00 0.00 0.00 30 1016.2
20260502091442 48 77 2.0 2.0 0.00 0.00 0.00 35 1016.5
20260502090940 49 169 1.0 1.0 0.00 0.00 0.00 31 1016.4
20260502090436 48 175 1.0 1.0 0.00 0.00 0.00 31 1016.4
20260502071331 51 151 0.0 1.0 0.00 0.00 0.00 34 1017.2
20260502070829 51 152 1.0 2.0 0.00 0.00 0.00 31 1017.0
20260502070326 51 174 0.0 0.0 0.00 0.00 0.00 33 1017.0
20260502065825 53 189 1.0 1.0 0.00 0.00 0.00 27 1017.1
20260502065323 52 188 0.0 0.0 0.00 0.00 0.00 28 1017.2
20260502064821 52 167 0.0 1.0 0.00 0.00 0.00 30 1017.1
20260502064319 53 148 2.0 2.0 0.00 0.00 0.00 31 1017.2
20260502063816 53 170 4.0 7.0 0.00 0.00 0.00 28 1017.1
20260502063314 53 201 3.0 3.0 0.00 0.00 0.00 29 1017.5
20260502062810 53 176 1.0 2.0 0.00 0.00 0.00 27 1017.4
20260502062308 51 165 1.0 3.0 0.00 0.00 0.00 27 1017.4
20260502061806 51 208 3.0 3.0 0.00 0.00 0.00 36 1017.4
20260502061304 52 206 4.0 4.0 0.00 0.00 0.00 35 1017.2
20260502060759 54 155 2.0 3.0 0.00 0.00 0.00 29 1017.4
20260502060254 54 172 1.0 1.0 0.00 0.00 0.00 27 1017.2